H1 CPF 2 NER 2021 3 29 9 088 01 glonass132 H2 1401201 9132 39620 2021 3 29 0 0 0 2021 4 1 23 45 0 900 1 1 0 0 0 1 H9 10 0 59302 0.00000 0 21980157.876 8813267.763 -9543117.300 10 0 59302 900.00000 0 20674530.718 8397750.941 -12398254.128 10 0 59302 1800.00000 0 19006553.391 8050835.277 -15013106.399 10 0 59302 2700.00000 0 17013580.544 7822865.423 -17336869.098 10 0 59302 3600.00000 0 14744027.501 7756751.411 -19324327.877 10 0 59302 4500.00000 0 12255544.495 7885983.690 -20936742.415 10 0 59302 5400.00000 0 9612815.049 8233053.247 -22142608.126 10 0 59302 6300.00000 0 6885068.308 8808344.971 -22918280.936 10 0 59302 7200.00000 0 4143407.502 9609552.666 -23248452.286 10 0 59302 8100.00000 0 1458064.663 10621642.509 -23126464.189 10 0 59302 9000.00000 0 -1104304.833 11817368.852 -22554457.042 10 0 59302 9900.00000 0 -3483175.309 13158322.909 -21543345.987 10 0 59302 10800.00000 0 -5626444.954 14596472.271 -20112624.845 10 0 59302 11700.00000 0 -7492374.928 16076128.100 -18290000.048 10 0 59302 12600.00000 0 -9051091.764 17536258.183 -16110860.458 10 0 59302 13500.00000 0 -10285589.689 18913048.803 -13617592.471 10 0 59302 14400.00000 0 -11192190.497 20142607.142 -10858753.200 10 0 59302 15300.00000 0 -11780441.651 21163689.232 -7888117.858 10 0 59302 16200.00000 0 -12072457.447 21920336.970 -4763620.448 10 0 59302 17100.00000 0 -12101732.073 22364311.088 -1546209.397 10 0 59302 18000.00000 0 -11911476.288 22457215.615 1701357.943 10 0 59302 18900.00000 0 -11552550.077 22172222.533 4915756.669 10 0 59302 19800.00000 0 -11081081.142 21495322.668 8034345.473 10 0 59302 20700.00000 0 -10555872.458 20426049.454 10996401.218 10 0 59302 21600.00000 0 -10035710.957 18977645.041 13744311.369 10 0 59302 22500.00000 0 -9576693.183 17176662.326 16224699.944 10 0 59302 23400.00000 0 -9229682.408 15062020.680 18389464.431 10 0 59302 24300.00000 0 -9038005.383 12683556.240 20196703.619 10 0 59302 25200.00000 0 -9035485.990 10100128.752 21611518.999 10 0 59302 26100.00000 0 -9244898.064 7377365.226 22606675.328 10 0 59302 27000.00000 0 -9676901.410 4585135.192 23163109.199 10 0 59302 27900.00000 0 -10329504.377 1794862.741 23270277.569 10 0 59302 28800.00000 0 -11188073.994 -923213.309 22926341.372 10 0 59302 29700.00000 0 -12225891.915 -3502718.581 22138182.427 10 0 59302 30600.00000 0 -13405231.807 -5883652.244 20921254.768 10 0 59302 31500.00000 0 -14678912.420 -8014624.105 19299274.320 10 0 59302 32400.00000 0 -15992261.228 -9854729.388 17303753.586 10 0 59302 33300.00000 0 -17285406.827 -11374985.982 14973390.408 10 0 59302 34200.00000 0 -18495804.906 -12559276.806 12353322.385 10 0 59302 35100.00000 0 -19560893.130 -13404760.328 9494260.703 10 0 59302 36000.00000 0 -20420764.948 -13921733.880 6451519.150 10 0 59302 36900.00000 0 -21020751.414 -14132956.724 3283956.100 10 0 59302 37800.00000 0 -21313803.852 -14072462.020 52848.751 10 0 59302 38700.00000 0 -21262577.999 -13783907.675 -3179279.753 10 0 59302 39600.00000 0 -20841132.299 -13318535.079 -6349858.539 10 0 59302 40500.00000 0 -20036168.876 -12732821.087 -9397470.300 10 0 59302 41400.00000 0 -18847764.117 -12085921.314 -12263033.155 10 0 59302 42300.00000 0 -17289556.924 -11437011.698 -14890940.672 10 0 59302 43200.00000 0 -15388384.970 -10842639.717 -17230138.361 10 0 59302 44100.00000 0 -13183381.893 -10354196.501 -19235116.014 10 0 59302 45000.00000 0 -10724570.916 -10015616.343 -20866796.563 10 0 59302 45900.00000 0 -8071011.206 -9861400.972 -22093304.072 10 0 59302 46800.00000 0 -5288572.029 -9915052.690 -22890595.509 10 0 59302 47700.00000 0 -2447425.528 -10187983.645 -23242943.314 10 0 59302 48600.00000 0 380639.041 -10678948.877 -23143258.497 10 0 59302 49500.00000 0 3124968.981 -11374028.907 -22593246.811 10 0 59302 50400.00000 0 5718755.554 -12247164.587 -21603393.618 10 0 59302 51300.00000 0 8101582.528 -13261223.591 -20192776.345 10 0 59302 52200.00000 0 10221709.331 -14369555.219 -18388706.731 10 0 59302 53100.00000 0 12037992.872 -15517969.079 -16226208.637 10 0 59302 54000.00000 0 13521367.086 -16647054.747 -13747340.594 10 0 59302 54900.00000 0 14655817.665 -17694744.385 -11000375.724 10 0 59302 55800.00000 0 15438810.746 -18599009.300 -8038855.003 10 0 59302 56700.00000 0 15881157.694 -19300575.205 -4920532.826 10 0 59302 57600.00000 0 16006322.380 -19745539.680 -1706236.368 10 0 59302 58500.00000 0 15849201.375 -19887779.282 1541337.416 10 0 59302 59400.00000 0 15454430.360 -19691042.716 4758861.978 10 0 59302 60300.00000 0 14874290.550 -19130640.069 7883632.469 10 0 59302 61200.00000 0 14166306.017 -18194655.696 10854801.791 10 0 59302 62100.00000 0 13390635.954 -16884633.081 13614575.780 10 0 59302 63000.00000 0 12607374.266 -15215702.869 16109343.097 10 0 59302 63900.00000 0 11873872.276 -13216149.314 18290717.159 10 0 59302 64800.00000 0 11242198.615 -10926434.265 20116469.912 10 0 59302 65700.00000 0 10756843.755 -8397720.667 21551339.945 10 0 59302 66600.00000 0 10452765.462 -5689958.420 22567700.383 10 0 59302 67500.00000 0 10353856.409 -2869613.207 23146075.211 10 0 59302 68400.00000 0 10471896.802 -7133.164 23275495.845 10 0 59302 69300.00000 0 10806034.270 2825741.420 22953692.934 10 0 59302 70200.00000 0 11342811.044 5558714.564 22187121.418 10 0 59302 71100.00000 0 12056735.689 8125605.152 20990819.866 10 0 59302 72000.00000 0 12911374.222 10466842.650 19388107.901 10 0 59302 72900.00000 0 13860914.193 12531686.805 17410128.224 10 0 59302 73800.00000 0 14852135.995 14280081.689 15095242.207 10 0 59302 74700.00000 0 15826709.108 15684069.367 12488290.556 10 0 59302 75600.00000 0 16723717.741 16728706.746 9639732.645 10 0 59302 76500.00000 0 17482310.944 17412449.220 6604680.258 10 0 59302 77400.00000 0 18044366.991 17746986.515 3441843.405 10 0 59302 78300.00000 0 18357061.298 17756538.571 212407.426 10 0 59302 79200.00000 0 18375230.692 17476641.316 -3021138.031 10 0 59302 80100.00000 0 18063435.152 16952473.177 -6196196.466 10 0 59302 81000.00000 0 17397630.131 16236792.081 -9251266.146 10 0 59302 81900.00000 0 16366378.575 15387568.997 -12127123.421 10 0 59302 82800.00000 0 14971550.683 14465416.759 -14767965.286 10 0 59302 83700.00000 0 13228480.159 13530921.504 -17122489.491 10 0 59302 84600.00000 0 11165568.236 12641988.371 -19144891.489 10 0 59302 85500.00000 0 8823349.670 11851312.824 -20795758.804 10 0 59303 0.00000 0 6253057.083 11204083.937 -22042845.330 10 0 59303 900.00000 0 3514740.737 10736017.005 -22861710.166 10 0 59303 1800.00000 0 675020.591 10471798.051 -23236207.683 10 0 59303 2700.00000 0 -2195438.704 10424008.670 -23158818.632 10 0 59303 3600.00000 0 -5024625.619 10592575.865 -22630814.636 10 0 59303 4500.00000 0 -7741941.163 10964773.116 -21662251.477 10 0 59303 5400.00000 0 -10280905.438 11515773.564 -20271790.001 10 0 59303 6300.00000 0 -12581698.491 12209733.645 -18486346.660 10 0 59303 7200.00000 0 -14593428.878 13001362.514 -16340579.289 10 0 59303 8100.00000 0 -16276034.503 13837911.631 -13876217.125 10 0 59303 9000.00000 0 -17601735.433 14661500.476 -11141247.511 10 0 59303 9900.00000 0 -18555977.110 15411679.476 -8188975.117 10 0 59303 10800.00000 0 -19137824.103 16028120.525 -5076972.409 10 0 59303 11700.00000 0 -19359788.091 16453319.617 -1865942.812 10 0 59303 12600.00000 0 -19247098.040 16635195.237 1381479.765 10 0 59303 13500.00000 0 -18836444.824 16529470.560 4601969.898 10 0 59303 14400.00000 0 -18174255.119 16101736.828 7732762.049 10 0 59303 15300.00000 0 -17314569.764 15329109.219 10712888.056 10 0 59303 16200.00000 0 -16316618.587 14201404.331 13484375.022 10 0 59303 17100.00000 0 -15242196.380 12721789.199 15993379.088 10 0 59303 18000.00000 0 -14152952.704 10906874.730 18191232.315 10 0 59303 18900.00000 0 -13107711.194 8786250.212 20035382.329 10 0 59303 19800.00000 0 -12159931.889 6401479.264 21490207.100 10 0 59303 20700.00000 0 -11355423.313 3804600.254 22527690.082 10 0 59303 21600.00000 0 -10730399.587 1056194.552 23127944.277 10 0 59303 22500.00000 0 -10309962.680 -1776896.416 23279576.822 10 0 59303 23400.00000 0 -10107071.613 -4624110.273 22979888.928 10 0 59303 24300.00000 0 -10122039.707 -7413854.076 22234909.085 10 0 59303 25200.00000 0 -10342578.921 -10076235.431 21059260.404 10 0 59303 26100.00000 0 -10744387.625 -12545722.614 19475865.756 10 0 59303 27000.00000 0 -11292255.850 -14763625.388 17515497.139 10 0 59303 27900.00000 0 -11941640.865 -16680295.846 15216178.126 10 0 59303 28800.00000 0 -12640646.762 -18256960.110 12622450.767 10 0 59303 29700.00000 0 -13332325.262 -19467106.941 9784520.488 10 0 59303 30600.00000 0 -13957201.783 -20297377.336 6757294.591 10 0 59303 31500.00000 0 -14455921.580 -20747919.497 3599331.955 10 0 59303 32400.00000 0 -14771905.686 -20832195.418 371723.061 10 0 59303 33300.00000 0 -14853905.807 -20576247.613 -2863079.146 10 0 59303 34200.00000 0 -14658351.250 -20017456.770 -6042455.889 10 0 59303 35100.00000 0 -14151389.222 -19202841.941 -9104824.465 10 0 59303 36000.00000 0 -13310532.311 -18186973.991 -11990822.954 10 0 59303 36900.00000 0 -12125842.914 -17029589.019 -14644455.244 10 0 59303 37800.00000 0 -10600603.379 -15793001.093 -17014174.665 10 0 59303 38700.00000 0 -8751441.635 -14539422.129 -19053885.422 10 0 59303 39600.00000 0 -6607904.614 -13328300.829 -20723842.382 10 0 59303 40500.00000 0 -4211494.617 -12213792.148 -21991431.598 10 0 59303 41400.00000 0 -1614206.080 -11242463.550 -22831816.021 10 0 59303 42300.00000 0 1123378.771 -10451334.782 -23228433.168 10 0 59303 43200.00000 0 3934358.404 -9866334.226 -23173334.203 10 0 59303 44100.00000 0 6748052.046 -9501237.717 -22667356.712 10 0 59303 45000.00000 0 9492706.838 -9357135.662 -21720126.490 10 0 59303 45900.00000 0 12098260.129 -9422452.162 -20349886.916 10 0 59303 46800.00000 0 14499041.985 -9673516.536 -18583157.826 10 0 59303 47700.00000 0 16636304.754 -10075664.111 -16454229.233 10 0 59303 48600.00000 0 18460473.361 -10584820.388 -14004498.833 10 0 59303 49500.00000 0 19933021.292 -11149501.711 -11281665.486 10 0 59303 50400.00000 0 21027892.709 -11713147.331 -8338794.380 10 0 59303 51300.00000 0 21732410.364 -12216683.093 -5233272.497 10 0 59303 52200.00000 0 22047630.923 -12601206.573 -2025675.631 10 0 59303 53100.00000 0 21988132.962 -12810678.048 1221429.413 10 0 59303 54000.00000 0 21581247.524 -12794501.169 4444722.411 10 0 59303 54900.00000 0 20865765.163 -12509882.047 7581381.086 10 0 59303 55800.00000 0 19890175.951 -11923865.157 10570319.873 10 0 59303 56700.00000 0 18710518.985 -11014958.639 13353390.395 10 0 59303 57600.00000 0 17387934.360 -9774279.598 15876519.027 10 0 59303 58500.00000 0 15986022.893 -8206170.890 18090758.681 10 0 59303 59400.00000 0 14568126.416 -6328263.714 19953234.308 10 0 59303 60300.00000 0 13194644.043 -4170983.979 21427964.340 10 0 59303 61200.00000 0 11920497.422 -1776523.967 22486543.130 10 0 59303 62100.00000 0 10792850.788 802676.909 23108672.770 10 0 59303 63000.00000 0 9849180.138 3505878.382 23282535.731 10 0 59303 63900.00000 0 9115770.582 6266331.256 23005002.995 10 0 59303 64800.00000 0 8606702.512 9013820.033 22281675.461 10 0 59303 65700.00000 0 8323366.681 11677351.438 21126759.309 10 0 59303 66600.00000 0 8254526.257 14187878.461 19562778.938 10 0 59303 67500.00000 0 8376921.290 16480948.638 17620133.708 10 0 59303 68400.00000 0 8656388.835 18499168.647 15336507.268 10 0 59303 69300.00000 0 9049450.906 20194384.896 12756140.737 10 0 59303 70200.00000 0 9505303.313 21529491.541 9928983.182 10 0 59303 71100.00000 0 9968122.078 22479792.551 6909734.884 10 0 59303 72000.00000 0 10379591.088 23033862.484 3756800.951 10 0 59303 72900.00000 0 10681545.448 23193871.097 531174.300 10 0 59303 73800.00000 0 10818620.205 22975358.955 -2704731.540 10 0 59303 74700.00000 0 10740793.559 22406473.316 -5888278.161 10 0 59303 75600.00000 0 10405717.733 21526695.895 -8957804.401 10 0 59303 76500.00000 0 9780739.358 20385115.276 -11853812.366 10 0 59303 77400.00000 0 8844523.653 19038315.392 -14520114.896 10 0 59303 78300.00000 0 7588212.908 17547967.583 -16904922.679 10 0 59303 79200.00000 0 6016068.715 15978226.140 -18961850.203 10 0 59303 80100.00000 0 4145568.769 14393035.690 -20650820.969 10 0 59303 81000.00000 0 2006951.520 12853462.637 -21938854.263 10 0 59303 81900.00000 0 -357775.163 11415162.185 -22800717.836 10 0 59303 82800.00000 0 -2896322.659 10126087.135 -23219433.076 10 0 59303 83700.00000 0 -5548048.142 9024534.856 -23186622.077 10 0 59303 84600.00000 0 -8246240.978 8137614.949 -22702688.656 10 0 59303 85500.00000 0 -10920675.336 7480202.824 -21776828.581 10 0 59304 0.00000 0 -13500323.806 7054424.052 -20426867.408 10 0 59304 900.00000 0 -15916119.354 6849692.334 -18678927.477 10 0 59304 1800.00000 0 -18103650.388 6843299.680 -16566929.877 10 0 59304 2700.00000 0 -20005675.074 7001535.474 -14131939.242 10 0 59304 3600.00000 0 -21574349.844 7281286.025 -11421364.155 10 0 59304 4500.00000 0 -22773076.570 7632047.395 -8488028.311 10 0 59304 5400.00000 0 -23577890.436 7998264.925 -5389130.997 10 0 59304 6300.00000 0 -23978329.301 8321898.994 -2185118.038 10 0 59304 7200.00000 0 -23977747.710 8545106.341 1061513.346 10 0 59304 8100.00000 0 -23593062.711 8612921.212 4287450.728 10 0 59304 9000.00000 0 -22853943.136 8475820.481 7429817.792 10 0 59304 9900.00000 0 -21801478.069 8092062.174 10427414.348 10 0 59304 10800.00000 0 -20486382.588 7429696.762 13221919.349 10 0 59304 11700.00000 0 -18966818.543 6468165.081 15759032.180 10 0 59304 12600.00000 0 -17305924.246 5199414.917 17989529.258 10 0 59304 13500.00000 0 -15569158.803 3628489.122 19870215.320 10 0 59304 14400.00000 0 -13821573.918 1773560.956 21364751.434 10 0 59304 15300.00000 0 -12125128.249 -334584.140 22444344.686 10 0 59304 16200.00000 0 -10536156.647 -2653597.877 23088287.707 10 0 59304 17100.00000 0 -9103099.206 -5131105.097 23284339.355 10 0 59304 18000.00000 0 -7864583.470 -7706661.879 23028941.050 10 0 59304 18900.00000 0 -6847937.725 -10314054.288 22327266.369 10 0 59304 19800.00000 0 -6068194.978 -12883842.702 21193104.480 10 0 59304 20700.00000 0 -5527626.751 -15346046.860 19648580.863 10 0 59304 21600.00000 0 -5215823.731 -17632861.564 17723721.442 10 0 59304 22500.00000 0 -5110317.919 -19681291.940 15455868.815 10 0 59304 23400.00000 0 -5177718.746 -21435600.582 12888961.728 10 0 59304 24300.00000 0 -5375314.600 -22849466.741 10072691.131 10 0 59304 25200.00000 0 -5653072.241 -23887769.440 7061548.271 10 0 59304 26100.00000 0 -5955950.248 -24527921.573 3913782.222 10 0 59304 27000.00000 0 -6226429.749 -24760700.493 690285.855 10 0 59304 27900.00000 0 -6407156.636 -24590540.919 -2546569.384 10 0 59304 28800.00000 0 -6443584.651 -24035277.962 -5734128.320 10 0 59304 29700.00000 0 -6286508.587 -23125350.758 -8810654.353 10 0 59304 30600.00000 0 -5894380.901 -21902499.121 -11716516.772 10 0 59304 31500.00000 0 -5235313.934 -20418006.894 -14395340.570 10 0 59304 32400.00000 0 -4288682.625 -18730564.453 -16795096.989 10 0 59304 33300.00000 0 -3046258.785 -16903838.475 -18869113.861 10 0 59304 34200.00000 0 -1512827.335 -15003849.654 -20576986.151 10 0 59304 35100.00000 0 293743.817 -13096267.159 -21885368.883 10 0 59304 36000.00000 0 2342985.955 -11243732.334 -22768636.682 10 0 59304 36900.00000 0 4592846.445 -9503323.315 -23209396.451 10 0 59304 37800.00000 0 6991200.688 -7924266.606 -23198842.359 10 0 59304 38700.00000 0 9477798.555 -6545991.679 -22736945.158 10 0 59304 39600.00000 0 11986566.095 -5396610.678 -21832470.834 10 0 59304 40500.00000 0 14448167.993 -4491887.646 -20502826.868 10 0 59304 41400.00000 0 16792724.705 -3834741.263 -18773737.665 10 0 59304 42300.00000 0 18952570.836 -3415302.711 -16678754.234 10 0 59304 43200.00000 0 20864939.053 -3211526.566 -14258606.630 10 0 59304 44100.00000 0 22474456.266 -3190329.042 -11560411.090 10 0 59304 45000.00000 0 23735346.165 -3309205.086 -8636747.213 10 0 59304 45900.00000 0 24613244.430 -3518255.010 -5544623.495 10 0 59304 46800.00000 0 25086549.197 -3762533.410 -2344352.248 10 0 59304 47700.00000 0 25147249.189 -3984619.020 901642.743 10 0 59304 48600.00000 0 24801194.441 -4127294.408 4130060.876 10 0 59304 49500.00000 0 24067798.617 -4136219.656 7277975.823 10 0 59304 50400.00000 0 22979186.461 -3962484.585 10284076.664 10 0 59304 51300.00000 0 21578823.875 -3564929.560 13089873.288 10 0 59304 52200.00000 0 19919690.145 -2912135.283 15640841.321 10 0 59304 53100.00000 0 18062071.259 -1983996.653 17887483.474 10 0 59304 54000.00000 0 16071068.886 -772814.014 19786286.558 10 0 59304 54900.00000 0 14013931.023 716144.013 21300556.079 10 0 59304 55800.00000 0 11957317.071 2464629.119 22401113.146 10 0 59304 56700.00000 0 9964611.954 4441953.090 23066841.727 10 0 59304 57600.00000 0 8093400.861 6606055.421 23285077.371 10 0 59304 58500.00000 0 6393208.717 8905053.560 23051831.756 10 0 59304 59400.00000 0 4903596.667 11279210.864 22371850.487 10 0 59304 60300.00000 0 3652692.469 13663240.522 21258504.635 10 0 59304 61200.00000 0 2656213.470 15988850.118 19733519.269 10 0 59304 62100.00000 0 1917020.223 18187422.105 17826545.052 10 0 59304 63000.00000 0 1425216.962 20192720.163 15574581.402 10 0 59304 63900.00000 0 1158792.761 21943510.442 13021262.317 10 0 59304 64800.00000 0 1084775.038 23385990.354 10216018.068 10 0 59304 65700.00000 0 1160846.194 24475925.374 7213128.134 10 0 59304 66600.00000 0 1337355.229 25180406.098 4070682.701 10 0 59304 67500.00000 0 1559639.947 25479153.348 849471.654 10 0 59304 68400.00000 0 1770562.543 25365317.385 -2388178.622 10 0 59304 69300.00000 0 1913152.466 24845737.897 -5579599.110 10 0 59304 70200.00000 0 1933245.807 23940653.482 -8662980.579 10 0 59304 71100.00000 0 1782010.310 22682871.926 -11578562.105 10 0 59304 72000.00000 0 1418249.696 21116435.044 -14269783.202 10 0 59304 72900.00000 0 810389.713 19294832.434 -16684377.728 10 0 59304 73800.00000 0 -61938.730 17278837.470 -18775388.646 10 0 59304 74700.00000 0 -1206787.437 15134054.632 -20502083.878 10 0 59304 75600.00000 0 -2619298.725 12928279.334 -21830755.415 10 0 59304 76500.00000 0 -4281660.482 10728779.583 -22735385.748 10 0 59304 77400.00000 0 -6163613.097 8599612.335 -23198168.013 10 0 59304 78300.00000 0 -8223489.856 6599086.282 -23209868.926 10 0 59304 79200.00000 0 -10409750.011 4777477.003 -22770026.326 10 0 59304 80100.00000 0 -12662942.676 3175090.358 -21886976.234 10 0 59304 81000.00000 0 -14918021.332 1820755.565 -20577707.535 10 0 59304 81900.00000 0 -17106913.377 730811.692 -18867545.676 10 0 59304 82800.00000 0 -19161237.690 -91369.357 -16789670.326 10 0 59304 83700.00000 0 -21015056.292 -655302.938 -14384475.316 10 0 59304 84600.00000 0 -22607544.045 -982758.185 -11698782.636 10 0 59304 85500.00000 0 -23885463.123 -1106597.950 -8784925.674 10 0 59305 0.00000 0 -24805336.957 -1069142.036 -5699719.918 10 0 59305 900.00000 0 -25335230.508 -920124.370 -2503341.613 10 0 59305 1800.00000 0 -25456061.686 -714332.075 741861.377 10 0 59305 2700.00000 0 -25162386.192 -509029.197 3972602.937 10 0 59305 3600.00000 0 -24462624.504 -361275.943 7125909.499 10 0 59305 4500.00000 0 -23378720.477 -325259.785 10140362.245 10 0 59305 5400.00000 0 -21945247.628 -449753.348 12957304.857 10 0 59305 6300.00000 0 -20208002.016 -775808.405 15521991.993 10 0 59305 7200.00000 0 -18222142.732 -1334784.578 17784655.292 10 0 59305 8100.00000 0 -16049959.836 -2146796.515 19701466.036 10 0 59305 9000.00000 0 -13758364.881 -3219644.988 21235376.220 10 0 59305 9900.00000 0 -11416210.218 -4548276.393 22356822.639 10 0 59305 10800.00000 0 -9091549.596 -6114792.573 23044281.818 10 0 59305 11700.00000 0 -6848954.051 -7889009.702 23284666.792 10 0 59305 12600.00000 0 -4746994.057 -9829541.998 23073559.862 10 0 59305 13500.00000 0 -2835991.036 -11885364.449 22415278.667 10 0 59305 14400.00000 0 -1156129.545 -13997789.197 21322775.836 10 0 59305 15300.00000 0 263993.822 -16102773.404 19817375.387 10 0 59305 16200.00000 0 1408327.189 -18133463.185 17928351.787 10 0 59305 17100.00000 0 2273788.630 -20022868.778 15692360.085 10 0 59305 18000.00000 0 2870144.412 -21706560.826 13152728.077 10 0 59305 18900.00000 0 3219347.320 -23125276.995 10358623.650 10 0 59305 19800.00000 0 3354364.103 -24227331.693 7364112.579 10 0 59305 20700.00000 0 3317541.919 -24970729.720 4227124.021 10 0 59305 21600.00000 0 3158582.631 -25324896.616 1008342.550 10 0 59305 22500.00000 0 2932209.874 -25271953.950 -2229952.988 10 0 59305 23400.00000 0 2695626.550 -24807486.413 -5425082.357 10 0 59305 24300.00000 0 2505869.220 -23940768.158 -8515166.438 10 0 59305 25200.00000 0 2417170.372 -22694438.055 -11440316.931 10 0 59305 26100.00000 0 2478439.418 -21103636.329 -14143790.756 10 0 59305 27000.00000 0 2730968.630 -19214637.126 -16573087.274 10 0 59305 27900.00000 0 3206461.253 -17083032.518 -18680967.351 10 0 59305 28800.00000 0 3925465.865 -14771542.090 -20426374.464 10 0 59305 29700.00000 0 4896284.510 -12347537.993 -21775239.879 10 0 59305 30600.00000 0 6114402.599 -9880387.357 -22701155.911 10 0 59305 31500.00000 0 7562466.924 -7438721.910 -23185903.490 10 0 59305 32400.00000 0 9210815.403 -5087747.939 -23219823.014 10 0 59305 33300.00000 0 11018539.008 -2886708.436 -22802020.145 10 0 59305 34200.00000 0 12935033.785 -886603.405 -21940401.290 10 0 59305 35100.00000 0 14901980.051 871736.205 -20651536.707 10 0 59305 36000.00000 0 16855667.356 2359139.983 -18960352.497 10 0 59305 36900.00000 0 18729568.560 3559091.919 -16899656.215 10 0 59305 37800.00000 0 20457055.239 4468184.607 -14509504.269 10 0 59305 38700.00000 0 21974139.930 5096014.577 -11836422.766 10 0 59305 39600.00000 0 23222128.862 5464523.296 -8932496.762 10 0 59305 40500.00000 0 24150072.217 5606812.404 -5854346.019 10 0 59305 41400.00000 0 24716907.156 5565484.382 -2662007.971 10 0 59305 42300.00000 0 24893201.799 5390580.505 582248.896 10 0 59305 43200.00000 0 24662425.497 5137205.460 3815156.522 10 0 59305 44100.00000 0 24021691.101 4862941.556 6973697.747 10 0 59305 45000.00000 0 22981937.815 4625164.455 9996349.479 10 0 59305 45900.00000 0 21567547.466 4478376.339 12824292.666 10 0 59305 46800.00000 0 19815411.295 4471671.290 15402564.236 10 0 59305 47700.00000 0 17773487.981 4646441.430 17681127.694 10 0 59305 48600.00000 0 15498914.995 5034421.507 19615841.373 10 0 59305 49500.00000 0 13055753.931 5656154.561 21169305.964 10 0 59305 50400.00000 0 10512465.400 6519942.903 22311575.727 10 0 59305 51300.00000 0 7939219.647 7621327.710 23020721.096 10 0 59305 52200.00000 0 5405155.036 8943118.076 23283233.463 10 0 59305 53100.00000 0 2975697.986 10455967.226 23094266.139 10 0 59305 54000.00000 0 710054.404 12119470.900 22457708.656 10 0 59305 54900.00000 0 -1341025.064 13883741.436 21386094.548 10 0 59305 55800.00000 0 -3137115.496 15691391.642 19900345.637 10 0 59305 56700.00000 0 -4649548.806 17479845.965 18029358.600 10 0 59305 57600.00000 0 -5862348.748 19183883.303 15809442.126 10 0 59305 58500.00000 0 -6772633.342 20738306.383 13283615.508 10 0 59305 59400.00000 0 -7390470.217 22080627.651 10500781.713 10 0 59305 60300.00000 0 -7738192.641 23153660.873 7514790.094 10 0 59305 61200.00000 0 -7849205.960 23907911.448 4383405.920 10 0 59305 62100.00000 0 -7766335.134 24303666.449 1167205.523 10 0 59305 63000.00000 0 -7539782.870 24312697.848 -2071582.776 10 0 59305 63900.00000 0 -7224783.793 23919507.632 -5270270.495 10 0 59305 64800.00000 0 -6879052.875 23122062.299 -8366911.540 10 0 59305 65700.00000 0 -6560134.973 21931985.341 -11301493.018 10 0 59305 66600.00000 0 -6322766.635 20374198.273 -14017091.830 10 0 59305 67500.00000 0 -6216361.062 18486023.664 -16460975.178 10 0 59305 68400.00000 0 -6282722.329 16315785.749 -18585623.883 10 0 59305 69300.00000 0 -6554085.708 13920965.100 -20349658.732 10 0 59305 70200.00000 0 -7051567.713 11365982.451 -21718651.734 10 0 59305 71100.00000 0 -7784092.669 8719702.331 -22665806.180 10 0 59305 72000.00000 0 -8747842.926 6052759.147 -23172491.665 10 0 59305 72900.00000 0 -9926258.147 3434816.024 -23228622.818 10 0 59305 73800.00000 0 -11290586.146 931869.883 -22832873.323 10 0 59305 74700.00000 0 -12800964.512 -1396285.129 -21992719.802 10 0 59305 75600.00000 0 -14407989.764 -3498330.030 -20724313.334 10 0 59305 76500.00000 0 -16054709.859 -5333334.064 -19052179.723 10 0 59305 77400.00000 0 -17678957.456 -6872227.883 -17008753.084 10 0 59305 78300.00000 0 -19215926.352 -8098774.768 -14633750.761 10 0 59305 79200.00000 0 -20600882.493 -9009998.852 -11973401.036 10 0 59305 80100.00000 0 -21771894.584 -9616052.321 -9079538.496 10 0 59305 81000.00000 0 -22672467.922 -9939527.688 -6008584.918 10 0 59305 81900.00000 0 -23253968.792 -10014245.092 -2820436.337 10 0 59305 82800.00000 0 -23477735.420 -9883567.309 422720.679 10 0 59305 83700.00000 0 -23316784.900 -9598315.661 3657638.826 10 0 59305 84600.00000 0 -22757042.880 -9214377.292 6821260.177 10 0 59305 85500.00000 0 -21798043.495 -8790107.499 9851960.247 99